DO8TBO-15 Weather Reports


time (UTC)temp
C
wind
direction
speed
KPH
gust
KPH
rain 1hr
cm
rain 24hr
cm
rain mn
cm
humidity
%
barometer
mb
20260507131525 11 254 1.6 6.4 0.00 0.66 0.66 1013.9
20260507130522 11 225 3.2 6.4 0.00 0.66 0.66 1013.8
20260507125518 11 213 1.6 6.4 0.00 0.66 0.66 1013.7
20260507124615 11 277 1.6 8.0 0.00 0.66 0.66 1013.6
20260507123611 11 288 1.6 8.0 0.00 0.66 0.66 1013.6
20260507122608 11 293 0.0 3.2 0.00 0.66 0.66 1013.5
20260507121604 11 243 1.6 8.0 0.00 0.66 0.66 1013.3
20260507120600 11 203 1.6 3.2 0.00 0.66 0.66 1013.2
20260507115556 11 68 0.0 6.4 0.00 0.66 0.66 1013.2
20260507114552 11 0 1.6 6.4 0.00 0.66 0.66 1013.3
20260507113548 11 315 1.6 8.0 0.00 0.66 0.66 1013.1
20260507112545 11 192 1.6 6.4 0.00 0.66 0.66 1013.0
20260507111541 11 45 0.0 6.4 0.00 0.66 0.66 1012.9
20260507110537 11 270 3.2 6.4 0.00 0.66 0.66 1012.9
20260507105533 11 225 0.0 6.4 0.00 0.66 0.66 1012.9
20260507104559 11 239 1.6 6.4 0.00 0.66 0.66 1012.8
20260507103556 12 353 1.6 8.0 0.00 0.66 0.66 1012.7
20260507102552 12 297 1.6 8.0 0.00 0.66 0.66 1012.7
20260507101548 12 225 0.0 4.8 0.00 0.66 0.66 1012.5
20260507100544 11 0.0 1.6 0.00 0.66 0.66 1012.5
20260507095540 11 344 1.6 6.4 0.00 0.66 0.66 1012.5
20260507094536 11 198 0.0 8.0 0.00 0.66 0.66 1012.3
20260507093532 11 257 1.6 8.0 0.00 0.66 0.66 1012.3
20260507092529 11 222 1.6 4.8 0.00 0.66 0.66 1012.1
20260507091525 11 0 0.0 4.8 0.00 0.66 0.66 1011.9
20260507090521 11 270 3.2 4.8 0.03 0.66 0.66 1011.8
20260507085517 11 315 0.0 6.4 0.03 0.66 0.66 1011.7
20260507084614 11 337 0.0 6.4 0.03 0.66 0.66 1011.5
20260507083610 11 0.0 3.2 0.03 0.66 0.66 1011.5
20260507082606 10 118 1.6 8.0 0.03 0.66 0.66 1011.3
20260507081603 10 135 0.0 11.3 0.03 0.66 0.66 1011.3
20260507080559 10 270 3.2 6.4 0.00 0.64 0.64 1011.1
20260507075555 10 277 1.6 9.7 0.00 0.64 0.64 1011.0
20260507074552 10 271 0.0 6.4 0.00 0.64 0.64 1010.9
20260507073547 10 270 0.0 6.4 0.00 0.64 0.64 1010.7
20260507072544 10 270 0.0 6.4 0.00 0.64 0.64 1010.6
20260507071541 10 315 0.0 6.4 0.00 0.64 0.64 1010.5
20260507070537 10 225 1.6 3.2 0.00 0.64 0.64 1010.4
20260507065533 10 243 1.6 9.7 0.00 0.64 0.64 1010.4
20260507064529 11 319 1.6 11.3 0.00 0.64 0.64 11 1010.3
20260507063525 11 0.0 3.2 0.00 0.64 0.64 12 1010.1
20260507062521 11 291 0.0 6.4 0.00 0.64 0.64 15 1010.1
20260507061517 11 49 1.6 6.4 0.00 0.64 0.64 19 1009.9
20260507060613 11 0.0 0.0 0.00 0.64 0.64 21 1009.7
20260507055610 11 0.0 3.2 0.03 0.64 0.64 21 1009.6
20260507054607 10 0.0 3.2 0.03 0.64 0.64 22 1009.5
20260507053603 11 135 0.0 8.0 0.13 0.64 0.64 23 1009.4
20260507052559 10 0.0 4.8 0.18 0.64 0.64 24 1009.3
20260507051555 11 326 0.0 6.4 0.28 0.64 0.64 25 1009.2
20260507050551 11 225 1.6 6.4 0.28 0.64 0.64 24 1009.1
20260507045547 11 246 1.6 6.4 0.23 0.61 0.61 23 1009.0
20260507044544 11 180 0.0 3.2 0.28 0.61 0.61 20 1009.0
20260507043541 11 0.0 0.0 0.18 0.51 0.51 19 1008.8
20260507042536 11 0.0 1.6 0.13 0.46 0.46 17 1008.6
20260507041533 11 0.0 3.2 0.03 0.36 0.36 15 1008.5
20260507040529 11 0.0 0.0 0.03 0.36 0.36 13 1008.4
20260507035526 11 0.0 0.0 0.03 0.36 0.36 11 1008.3
20260507034522 11 180 0.0 6.4 0.00 0.33 0.33 10 1008.2
20260507033518 11 180 0.0 6.4 0.00 0.33 0.33 10 1008.2
20260507032614 11 0.0 1.6 0.00 0.33 0.33 10 1008.1
20260507031610 11 0.0 3.2 0.03 0.33 0.33 10 1008.0
20260507030606 11 0.0 0.0 0.05 0.33 0.33 10 1007.9
20260507025602 11 225 0.0 4.8 0.10 0.33 0.33 1007.9
20260507024559 11 225 0.0 6.4 0.15 0.33 0.33 1007.8
20260507023556 11 0.0 4.8 0.18 0.33 0.33 1007.8
20260507022552 11 235 1.6 8.0 0.20 0.33 0.33 1007.8
20260507021548 11 241 3.2 12.9 0.20 0.30 0.30 1007.6
20260507020544 11 0.0 3.2 0.23 0.28 0.28 1007.6
20260507015540 11 225 1.6 6.4 0.20 0.23 0.23 1007.7
20260507014536 11 284 3.2 12.9 0.18 0.20 0.18 1007.6
20260507013532 11 198 3.2 11.3 0.15 0.18 0.15 1007.5
20260507012528 11 315 0.0 6.4 0.13 0.15 0.13 1007.5
20260507011524 12 212 1.6 6.4 0.10 0.13 0.10 1007.5
20260507010521 12 0.0 0.0 0.03 0.05 0.03 1007.4
20260507005517 12 204 4.8 12.9 0.03 0.05 0.03 1007.4
20260507004614 12 217 3.2 9.7 0.00 0.03 0.00 1007.4
20260507003609 12 236 3.2 8.0 0.00 0.03 0.00 1007.4
20260507002606 12 0.0 4.8 0.00 0.03 0.00 1007.4
20260507001603 12 190 1.6 8.0 0.00 0.03 0.00 1007.3
20260507000558 12 0.0 3.2 0.00 0.03 0.00 1007.4
20260506235555 12 242 4.8 11.3 0.00 0.03 0.00 1007.4
20260506234551 12 225 3.2 11.3 0.00 0.03 0.00 1007.3
20260506233548 13 232 3.2 9.7 0.00 0.03 0.00 1007.1
20260506232543 13 214 3.2 14.5 0.00 0.03 0.00 1007.1
20260506231539 13 258 4.8 9.7 0.00 0.03 0.00 1007.2
20260506230536 13 225 4.8 11.3 0.00 0.03 0.00 1007.2
20260506225533 13 229 3.2 8.0 0.00 0.03 0.00 1007.1
20260506224529 13 238 4.8 9.7 0.00 0.03 0.00 1007.1
20260506223525 13 211 1.6 6.4 0.00 0.03 0.00 1007.0
20260506222520 13 216 3.2 6.4 0.00 0.03 0.00 1007.0
20260506221517 13 217 3.2 8.0 0.00 0.03 0.00 1006.8
20260506220613 13 45 1.6 4.8 0.00 0.03 0.00 1006.9
20260506215610 14 238 3.2 9.7 0.00 0.03 0.03 1006.8
20260506214606 14 232 3.2 11.3 0.00 0.03 0.03 1006.7
20260506213602 14 217 3.2 9.7 0.00 0.05 0.03 1006.7
20260506212559 14 226 3.2 8.0 0.00 0.05 0.03 1006.6
20260506211555 14 246 1.6 8.0 0.00 0.05 0.03 1006.6
20260506210551 14 225 3.2 4.8 0.00 0.05 0.03 1006.6
20260506205548 14 248 0.0 4.8 0.00 0.05 0.03 1006.5
20260506204543 14 0.0 3.2 0.00 0.05 0.03 1006.4
20260506203540 15 0.0 1.6 0.00 0.05 0.03 1006.3
20260506202536 15 0.0 0.0 0.00 0.05 0.03 1006.3
20260506201532 15 225 0.0 4.8 0.00 0.05 0.03 1006.4
20260506200528 15 0.0 3.2 0.00 0.05 0.03 1006.2
20260506195525 15 203 0.0 4.8 0.00 0.05 0.03 1006.2
20260506194521 15 225 1.6 6.4 0.00 0.10 0.03 1006.1
20260506193517 15 291 1.6 11.3 0.00 0.10 0.03 1006.0
20260506192614 15 237 3.2 8.0 0.00 0.10 0.03 1005.9
20260506191609 15 241 1.6 12.9 0.00 0.10 0.03 1005.8
20260506190606 15 0.0 0.0 0.00 0.10 0.03 1005.6
20260506185603 16 0.0 0.0 0.00 0.10 0.03 1005.5
20260506184559 16 0.0 0.0 0.00 0.10 0.03 1005.3
20260506183555 16 0.0 3.2 0.00 0.10 0.03 1005.0
20260506182551 16 0.0 0.0 0.00 0.10 0.03 1004.9
20260506181547 17 0.0 0.0 0.00 0.13 0.03 1004.8
20260506180545 17 0.0 0.0 0.00 0.13 0.03 1004.8
20260506175539 17 0.0 1.6 0.00 0.13 0.03 1004.7
20260506174536 17 0.0 3.2 0.00 0.13 0.03 1004.6
20260506173533 17 0.0 3.2 0.00 0.15 0.03 1004.7
20260506172529 17 0 1.6 6.4 0.00 0.18 0.03 1004.6
20260506171525 18 45 0.0 4.8 0.00 0.23 0.03 1004.4
20260506170521 18 0.0 1.6 0.00 0.46 0.03 1004.4
20260506165519 18 270 0.0 4.8 0.00 0.56 0.03 1004.3
20260506164614 18 0.0 3.2 0.00 0.81 0.03 1004.3
20260506163610 18 0.0 3.2 0.00 0.84 0.03 1004.4
20260506162607 19 275 1.6 6.4 0.00 0.84 0.03 1004.5
20260506161603 19 0.0 3.2 0.00 0.86 0.03 1004.6
20260506160559 19 0.0 3.2 0.00 0.86 0.03 1004.7
20260506155555 19 225 0.0 6.4 0.00 0.86 0.03 1004.7
20260506154552 19 210 0.0 6.4 0.00 0.86 0.03 1004.7
20260506153547 19 236 3.2 8.0 0.00 0.86 0.03 1004.8
20260506152544 20 228 3.2 8.0 0.00 0.86 0.03 1004.7
20260506151541 20 270 0.0 4.8 0.00 0.86 0.03 1004.6
20260506150536 20 0.0 4.8 0.00 0.86 0.03 1004.5
20260506145532 20 242 1.6 8.0 0.00 0.86 0.03 1004.6
20260506143525 20 237 0.0 4.8 0.00 0.86 0.03 1004.6
20260506142521 20 221 1.6 6.4 0.00 0.86 0.03 1004.7
20260506141518 21 179 1.6 6.4 0.00 0.86 0.03 1004.7
20260506140615 21 0.0 1.6 0.00 0.86 0.03 1004.8
20260506135610 20 175 3.2 6.4 0.00 0.86 0.03 1004.8
20260506134606 20 150 1.6 6.4 0.00 0.86 0.03 1004.9
20260506133603 20 176 1.6 6.4 0.00 0.86 0.03 1004.8
20260506132559 20 135 0.0 6.4 0.00 0.86 0.03 1004.9